Regional Weather Roundup
Issued by NWS Sterling, VA

Home | Current Version | Previous Version | Graphics & Text | Print | Product List | Glossary On
Versions: 1 2 3 4 5 6 7 8 9 10 11 12 13 14 15 16 17 18 19 20 21 22 23 24 25 26 27 28 29 30 31 32 33 34 35 36 37 38 39 40 41 42 43 44 45 46 47 48 49 50
373
ASUS41 KLWX 202110
RWRLWX

REGIONAL WEATHER ROUNDUP
NATIONAL WEATHER SERVICE BALTIMORE MD/WASHINGTON DC
400 PM EST FRI JAN 20 2017

Note: "FAIR" indicates few or no clouds below 12,000 feet
with no significant weather and/or obstructions to visibility.
 TC=TEMPERATURE CELSIUS

 * =Non NWS site. Station does not report precipitation (e.g. rain,
    snow, etc.), thunder, or fog.

DCZ001-MDZ009-015-VAZ040>042-051-053>054-202200-
WASHINGTON METRO

CITY           SKY/WX    TMP DP  RH WIND       PRES   REMARKS
WASHINGTON NAT CLOUDY    48  45  89 S8        29.88R
DULLES         CLOUDY    48  44  86 SE10      29.85S
ANDREWS AFB    CLOUDY    46  44  93 SE3       29.87F
FT BELVOIR     CLOUDY    47  44  89 SE6       29.87F
QUANTICO       CLOUDY    45  45 100 SE6       29.88F FOG
COLLEGE PARK*  CLOUDY    45  41  87 SE5       29.87F
LEESBURG*      CLOUDY    50  48  93 S6        29.86R
MANASSAS*      CLOUDY   N/A N/A N/A S5        29.87R
GAITHERSBURG*  CLOUDY    46  39  76 SE5       29.90R

$$

MDZ006>007-011-014-202200-
BALTIMORE METRO

CITY           SKY/WX    TMP DP  RH WIND       PRES   REMARKS
BWI AIRPORT    CLOUDY    44  43  96 SE5       29.89S
MD SCIENCE CTR   N/A     44  39  82 MISG      29.90S
MARTIN STATE   CLOUDY    43  43 100 NE5       29.90F FOG
ANNAPOLIS      CLOUDY    44  42  93 CALM      29.90S FOG
FORT MEADE*    CLOUDY    43  41  93 SE5       29.91R

$$

MDZ012-015-019>023-202200-
MARYLAND EASTERN SHORE

CITY           SKY/WX    TMP DP  RH WIND       PRES   REMARKS
OCEAN CITY     CLOUDY    45  44  97 SE5       29.92F FOG
SALISBURY      CLOUDY    47  45  93 E8        29.90F
BAY BRIDGE AP* CLOUDY    45  43  93 SE7       29.89F FOG
CAMBRIDGE*     CLOUDY    46  43  87 SE8       29.88F
EASTON*        PTSUNNY   46  43  87 SE6       29.92F FOG

$$

MDZ017>025-202200-
SOUTHERN MARYLAND

CITY           SKY/WX    TMP DP  RH WIND       PRES   REMARKS
PATUXENT RIVER CLOUDY    45  43  93 S6        29.89S
ST INIGOES     LGT RAIN  47  44  90 SE5       29.89S
LEONARDTOWN*   CLOUDY    46  43  87 SE3       29.89F

$$

MDZ003>005-202200-
NORTH CENTRAL MARYLAND

CITY           SKY/WX    TMP DP  RH WIND       PRES   REMARKS
FREDERICK*     CLOUDY    43  43 100 CALM      29.89R FOG
HAGERSTOWN APT CLOUDY    46  41  82 S6        29.84R
WESTMINSTER*     N/A     41  41 100 SE8       29.84F FOG

$$

MDZ501>502-202200-
WESTERN MARYLAND

CITY           SKY/WX    TMP DP  RH WIND       PRES   REMARKS
OAKLAND*         N/A     46  46 100 W8G18     29.78R
CUMBERLAND*    CLOUDY    45  43  93 CALM      29.85S

$$

VAZ025>031-202200-
SHENANDOAH VALLEY

CITY           SKY/WX    TMP DP  RH WIND       PRES   REMARKS
WINCHESTER*    MOSUNNY   52  43  71 SE5       29.80S
FRONT ROYAL*   CLEAR     54  45  71 NE3       29.78F
LURAY*         CLEAR     57  50  77 SW10      29.79S
NEW MARKET*    CLEAR     57  47  67 SW9       29.78F
STAUNTON*      SUNNY     55  47  74 SW9       29.82S
WAYNESBORO*    CLEAR     54  46  76 W6        29.82S

$$

WVZ021-048>050-054>055-202200-
EASTERN WEST VIRGINIA PANHANDLE

CITY           SKY/WX    TMP DP  RH WIND       PRES   REMARKS
MARTINSBURG    CLOUDY    48  42  80 E5        29.82R
PETERSBURG*    MOSUNNY   58  48  70 N3        29.78R

$$

VAZ036>039-050-202200-
CENTRAL FOOTHILLS

CITY           SKY/WX    TMP DP  RH WIND       PRES   REMARKS
CHARLOTTESVILL CLOUDY    52  47  83 SE6       29.83S
CULPEPER*      CLOUDY    51  47  87 S6        29.86S
ORANGE*          N/A     50  50 100 SE5       29.86S
GORDONSVILLE*  CLOUDY    49  48  95 SW3       29.84S
WARRENTON*     CLOUDY    51  45  78 S6        29.84S

$$

VAZ055>057-202200-
NORTH AND CENTRAL PIEDMONT

CITY           SKY/WX    TMP DP  RH WIND       PRES   REMARKS
FREDERICKSBRG* CLOUDY    49  49 100 SE5       29.85F
STAFFORD*      CLOUDY    48  48  99 SE6       29.89F

$$

NCZ024-NYZ072-PAZ021-071-VAZ022-071-202200-
OTHER REGIONAL OBSERVATIONS

CITY           SKY/WX    TMP DP  RH WIND       PRES   REMARKS
NEW YORK CITY  LGT RAIN  42  38  85 S5        29.95S
PHILADELPHIA   CLOUDY    41  39  93 E5        29.93F
PITTSBURGH     CLOUDY    55  52  89 CALM      29.72R
ROANOKE        PTSUNNY   53  47  79 SE5       29.85S
RICHMOND       LGT RAIN  48  47  96 SE5       29.87S FOG
RALEIGH        CLOUDY    59  54  83 W5        29.85S

$$

ANZ530>537-202200-
MARINE OBSERVATIONS

STATION/POSITION TIME  TEMP    WIND        PRES
                       AIR SEA DIR/SP/G
                 (UTC) (F)     (DEG/KT/KT) (MB)
THOMAS PT LIGHT  2100   43 39  180/  3/  3   N/A
BALT KEY BRIDGE  2048   42      90/  7/  7 1012.2F
COVE POINT       2048   42     180/ 10/ 11 1012.7S
LEWISETTA        2048   47 44  180/  4/  5 1012.0F
SOLOMONS ISLAND  2048   44 41                N/A
PINEY POINT      2048          140/  8/  9   N/A

$$





USA.gov is the U.S. government's official web portal to all federal, state and local government web resources and services.